Weather History for KTKV - August, 2014

Change the Weather History Date:

Thursday, August 7, 2014

  Actual Average (KRHI) Record (KRHI)
Temperature  
Mean Temperature 62 °F 66 °F  
Max Temperature 79 °F 79 °F 94 °F (1937)
Min Temperature 46 °F 54 °F 40 °F (1921)
Degree Days  
Heating Degree Days 3 2  
Month to date heating degree days 12  
Since 1 June heating degree days 197  
Since 1 July heating degree days 63  
Cooling Degree Days 0 3  
Month to date cooling degree days 21  
Year to date cooling degree days 191  
Since 1 June cooling degree days 179  
Growing Degree Days 12 (Base 50)    
Moisture  
Dew Point 54 °F    
Average Humidity 74    
Maximum Humidity 97    
Minimum Humidity 37    
Precipitation  
Precipitation 0.00 in 0.12 in 2.10 in (1966)
Month to date precipitation 0.76  
Year to date precipitation 18.35  
Snow  
Snow 0.00 in - 0.00 in ()
Month to date snowfall  
Since 1 June snowfall  
Since 1 July snowfall  
Snow Depth -    
Sea Level Pressure  
Sea Level Pressure 30.14 in    
Wind  
Wind Speed 0 mph (SE)    
Max Wind Speed 6 mph    
Max Gust Speed -    
Visibility 8 miles    
Events Fog    
T = Trace of Precipitation, MM = Missing Value Source: NWS Daily Summary

Daily Weather History Graph

Daily Weather History Graph

Search for Another Location

Airport or City:

Trip Planner

Search our weather history database for the weather conditions in past years. The results will help you decide how hot, cold, wet, or windy it might be!

Date:

Astronomy

Aug. 07, 2014 Rise Set
Actual Time 5:50 AM CDT 8:18 PM CDT
Civil Twilight 5:17 AM CDT 8:52 PM CDT
Nautical Twilight 4:35 AM CDT 9:33 PM CDT
Astronomical Twilight 3:47 AM CDT 10:20 PM CDT
Moon 5:37 PM CDT (8/7) 2:18 AM CDT (8/7)
Length of Visible Light 15h 35m
Length of Day
14h 28m
Waxing Gibbous, 87% of the Moon is Illuminated
Aug 7
Waxing Gibbous
Aug 10
Full
Aug 17
Last Quarter
Aug 25
New
Sep 2
First Quarter

Hourly Weather History & Observations

Time (CDT) Temp. Dew Point Humidity Pressure Visibility Wind Dir Wind Speed Gust Speed Precip Events Conditions
12:15 AM 59.9 °F 57.4 °F 91% 30.14 in 10.0 mi Calm Calm - N/A   Clear
12:35 AM 58.3 °F 56.3 °F 93% 30.14 in 10.0 mi Calm Calm - N/A   Clear
12:55 AM 54.7 °F 52.7 °F 93% 30.15 in 3.0 mi Calm Calm - N/A   Clear
1:15 AM 54.5 °F 52.9 °F 94% 30.15 in 5.0 mi Calm Calm - N/A   Clear
1:35 AM 54.9 °F 53.6 °F 96% 30.14 in 5.0 mi Calm Calm - N/A   Clear
1:55 AM 52.5 °F 51.1 °F 95% 30.14 in 1.2 mi Calm Calm - N/A   Mist
2:15 AM 52.2 °F 50.9 °F 95% 30.14 in 7.0 mi Calm Calm - N/A   Clear
2:35 AM 53.1 °F 52.0 °F 96% 30.14 in 7.0 mi Calm Calm - N/A   Clear
2:55 AM 50.7 °F 49.5 °F 95% 30.14 in 7.0 mi Calm Calm - N/A   Clear
3:15 AM 50.4 °F 49.3 °F 96% 30.15 in 5.0 mi Calm Calm - N/A   Clear
3:35 AM 50.0 °F 49.1 °F 97% 30.14 in 0.8 mi Calm Calm - N/A   Mist
3:55 AM 49.5 °F 48.4 °F 96% 30.14 in 10.0 mi Calm Calm - N/A   Clear
4:15 AM 49.8 °F 48.6 °F 95% 30.14 in 7.0 mi Calm Calm - N/A   Clear
4:35 AM 50.2 °F 49.1 °F 96% 30.15 in 5.0 mi Calm Calm - N/A   Clear
4:55 AM 48.4 °F 47.3 °F 96% 30.14 in 5.0 mi Calm Calm - N/A   Clear
5:15 AM 48.2 °F 47.1 °F 96% 30.15 in 0.2 mi Calm Calm - N/A Fog Fog
5:35 AM 49.1 °F 48.2 °F 97% 30.15 in 2.5 mi Calm Calm - N/A   Clear
5:55 AM 46.8 °F 45.9 °F 97% 30.15 in 1.2 mi Calm Calm - N/A   Mist
6:15 AM 46.6 °F 45.7 °F 97% 30.16 in 2.5 mi Calm Calm - N/A   Clear
6:35 AM 46.9 °F 46.0 °F 97% 30.16 in 3.0 mi Calm Calm - N/A   Clear
6:55 AM 48.7 °F 47.8 °F 97% 30.16 in 0.2 mi Calm Calm - N/A Fog Fog
7:15 AM 52.3 °F 51.4 °F 97% 30.17 in 0.5 mi Calm Calm - N/A Fog Fog
7:35 AM 55.9 °F 55.0 °F 97% 30.17 in 7.0 mi Calm Calm - N/A   Clear
7:55 AM 59.0 °F 58.1 °F 97% 30.17 in 10.0 mi Calm Calm - N/A   Clear
8:15 AM 61.0 °F 59.9 °F 96% 30.17 in 10.0 mi Calm Calm - N/A   Clear
8:35 AM 63.5 °F 58.8 °F 85% 30.17 in 10.0 mi SE 3.5 mph - N/A   Clear
8:55 AM 65.7 °F 57.6 °F 75% 30.17 in 10.0 mi Calm Calm - N/A   Clear
9:15 AM 68.0 °F 57.6 °F 69% 30.17 in 10.0 mi Calm Calm - N/A   Clear
9:35 AM 69.3 °F 57.4 °F 66% 30.17 in 10.0 mi Calm Calm - N/A   Clear
9:55 AM 70.7 °F 57.4 °F 63% 30.17 in 10.0 mi Calm Calm - N/A   Clear
10:15 AM 72.1 °F 58.6 °F 62% 30.17 in 10.0 mi Calm Calm - N/A   Clear
10:35 AM 72.5 °F 57.0 °F 58% 30.17 in 10.0 mi Calm Calm - N/A   Clear
10:55 AM 73.2 °F 57.6 °F 58% 30.17 in 10.0 mi Calm Calm - N/A   Clear
11:15 AM 73.9 °F 55.0 °F 52% 30.16 in 10.0 mi Calm Calm - N/A   Clear
11:35 AM 74.8 °F 55.0 °F 50% 30.16 in 10.0 mi Calm Calm - N/A   Clear
11:55 AM 75.4 °F 53.2 °F 46% 30.16 in 10.0 mi Calm Calm - N/A   Clear
12:15 PM 76.1 °F 55.9 °F 50% 30.16 in 10.0 mi Calm Calm - N/A   Clear
12:35 PM 76.3 °F 52.5 °F 43% 30.15 in 10.0 mi Calm Calm - N/A   Clear
12:55 PM 77.0 °F 52.0 °F 42% 30.15 in 10.0 mi SE 4.6 mph - N/A   Scattered Clouds
1:15 PM 77.5 °F 53.6 °F 43% 30.14 in 10.0 mi SSE 4.6 mph - N/A   Scattered Clouds
1:35 PM 77.9 °F 52.3 °F 41% 30.14 in 10.0 mi SSE 3.5 mph - N/A   Clear
1:55 PM 77.4 °F 50.0 °F 38% 30.14 in 10.0 mi SE 4.6 mph - N/A   Scattered Clouds
2:15 PM 77.7 °F 52.3 °F 41% 30.13 in 10.0 mi SSE 5.8 mph - N/A   Scattered Clouds
2:35 PM 78.8 °F 50.9 °F 38% 30.13 in 10.0 mi SSE 3.5 mph - N/A   Scattered Clouds
2:55 PM 78.8 °F 50.5 °F 37% 30.13 in 10.0 mi SE 4.6 mph - N/A   Scattered Clouds
3:15 PM 74.5 °F 53.1 °F 47% 30.13 in 10.0 mi Calm Calm - N/A   Mostly Cloudy
3:35 PM 74.7 °F 52.2 °F 45% 30.12 in 10.0 mi Calm Calm - N/A   Overcast
3:55 PM 74.7 °F 54.3 °F 49% 30.12 in 10.0 mi Calm Calm - N/A   Scattered Clouds
4:15 PM 75.0 °F 54.1 °F 48% 30.12 in 10.0 mi Calm Calm - N/A   Scattered Clouds
4:35 PM 77.2 °F 53.1 °F 43% 30.11 in 10.0 mi SE 4.6 mph - N/A   Scattered Clouds
4:55 PM 76.8 °F 52.2 °F 42% 30.11 in 10.0 mi Calm Calm - N/A   Clear
5:15 PM 75.2 °F 53.4 °F 47% 30.11 in 10.0 mi Calm Calm - N/A   Clear
5:35 PM 75.2 °F 55.2 °F 50% 30.11 in 10.0 mi Calm Calm - N/A   Clear
5:55 PM 73.6 °F 56.8 °F 56% 30.11 in 10.0 mi Calm Calm - N/A   Clear
6:15 PM 74.3 °F 55.4 °F 52% 30.11 in 10.0 mi Calm Calm - N/A   Clear
6:35 PM 71.4 °F 57.7 °F 62% 30.11 in 10.0 mi Calm Calm - N/A   Clear
6:55 PM 69.8 °F 58.1 °F 66% 30.10 in 7.0 mi Calm Calm - N/A   Clear
7:15 PM 68.0 °F 59.0 °F 73% 30.10 in 10.0 mi Calm Calm - N/A   Clear
7:35 PM 67.1 °F 58.8 °F 75% 30.09 in 10.0 mi Calm Calm - N/A   Clear
7:55 PM 65.5 °F 58.6 °F 79% 30.10 in 10.0 mi Calm Calm - N/A   Clear
8:15 PM 63.5 °F 57.6 °F 81% 30.10 in 10.0 mi Calm Calm - N/A   Clear
8:35 PM 62.8 °F 57.7 °F 84% 30.10 in 10.0 mi Calm Calm - N/A   Clear
8:55 PM 61.9 °F 57.2 °F 85% 30.11 in 10.0 mi Calm Calm - N/A   Clear
9:15 PM 60.8 °F 57.0 °F 87% 30.11 in 10.0 mi Calm Calm - N/A   Clear
9:35 PM 60.6 °F 56.7 °F 87% 30.12 in 10.0 mi Calm Calm - N/A   Clear
9:55 PM 59.0 °F 55.9 °F 90% 30.12 in 10.0 mi Calm Calm - N/A   Clear
10:15 PM 57.4 °F 55.0 °F 92% 30.12 in 10.0 mi Calm Calm - N/A   Clear
10:35 PM 56.7 °F 54.9 °F 94% 30.12 in 10.0 mi Calm Calm - N/A   Clear
10:55 PM 55.4 °F 53.6 °F 94% 30.13 in 7.0 mi Calm Calm - N/A   Clear
11:15 PM 54.9 °F 53.2 °F 94% 30.13 in 10.0 mi Calm Calm - N/A   Clear
11:35 PM 53.6 °F 52.2 °F 95% 30.14 in 7.0 mi Calm Calm - N/A   Clear
11:55 PM 54.0 °F 52.9 °F 96% 30.14 in 7.0 mi Calm Calm - N/A   Clear